Вернуться в каталог

STARLINK-2187

АктивенСвязьVLEO
NORAD 48562·PAYLOAD·🇺🇸 United States

Запущен May 15, 2021 с Cape Canaveral Space Force Station

Loading…

Ближайшие Пролёты (ближайшие 24 часа)

TLE

СвежийSource: CelesTrak SupGP

Эпоха: Sep 14, 2026, 21:45 UTC

1 48562C 21041K   26257.90673611  .00331660  00000+0  13086-2 0  2573
2 48562  53.1467 291.0967 0007438  13.4602 208.5154 15.85895482    16

Отслеживайте STARLINK-2187 в реальном времени с AllMySat

Download on the App Store